This is the latest recevied weather packets stored in our database for station/object AF9W-5. If no packets are shown the sender has not sent any weather packets the latest 10 day(s).
| Time | Temp. | Humidity | Pressure | Rain* | Wind** | Luminosity | Snow |
|---|---|---|---|---|---|---|---|
| 1777529395 | 19.44° C | 18% | 1013.5 hPa | 0 mm | - | 0 W/m² | - |
| 1777529092 | 20° C | 18% | 1013.9 hPa | 0 mm | - | 0 W/m² | - |
| 1777528787 | 20° C | 18% | 1014 hPa | 0 mm | - | 0 W/m² | - |
| 1777528485 | 20° C | 17% | 1014.1 hPa | 0 mm | - | 0 W/m² | - |
| 1777528184 | 20° C | 17% | 1014 hPa | 0 mm | - | 0 W/m² | - |
| 1777527880 | 20° C | 17% | 1014.1 hPa | 0 mm | - | 0 W/m² | - |
| 1777527576 | 19.44° C | 18% | 1014.2 hPa | 0 mm | - | 0 W/m² | - |
| 1777527271 | 18.89° C | 18% | 1014.2 hPa | 0 mm | - | 0 W/m² | - |
| 1777526967 | 18.89° C | 20% | 1014.1 hPa | 0 mm | - | 0 W/m² | - |
| 1777526662 | 18.89° C | 20% | 1013.9 hPa | 0 mm | - | 0 W/m² | - |
| 1777526358 | 18.33° C | 20% | 1013.9 hPa | 0 mm | - | 0 W/m² | - |
| 1777526054 | 18.89° C | 21% | 1013.9 hPa | 0 mm | - | 0 W/m² | - |
| 1777525750 | 18.89° C | 20% | 1014.2 hPa | 0 mm | - | 0 W/m² | - |
| 1777525447 | 19.44° C | 20% | 1014.2 hPa | 0 mm | - | 0 W/m² | - |
| 1777525143 | 19.44° C | 20% | 1014.1 hPa | 0 mm | - | 0 W/m² | - |
| 1777524840 | 19.44° C | 20% | 1014.3 hPa | 0 mm | - | 0 W/m² | - |
| 1777524538 | 19.44° C | 19% | 1014.1 hPa | 0 mm | - | 0 W/m² | - |
| 1777524235 | 19.44° C | 19% | 1013.9 hPa | 0 mm | - | 0 W/m² | - |
| 1777523930 | 20° C | 20% | 1014 hPa | 0 mm | - | 0 W/m² | - |
| 1777523628 | 20° C | 20% | 1013.9 hPa | 0 mm | - | 0 W/m² | - |
| 1777523324 | 20.56° C | 19% | 1014.3 hPa | 0 mm | - | 0 W/m² | - |
| 1777523019 | 20.56° C | 19% | 1013.7 hPa | 0 mm | - | 0 W/m² | - |
| 1777522718 | 20.56° C | 19% | 1014 hPa | 0 mm | - | 0 W/m² | - |
| 1777522413 | 21.11° C | 19% | 1013.4 hPa | 0 mm | - | 0 W/m² | - |
| 1777522111 | 21.11° C | 19% | 1013.9 hPa | 0 mm | - | 0 W/m² | - |
* Rain latest hour (hover to see other rain measurements)
** Current wind speed in m/s (hover to see current wind gust speed)